Date,TemperatureHighF,TemperatureAvgF,TemperatureLowF,DewpointHighF,DewpointAvgF,DewpointLowF,HumidityHigh,HumidityAvg,HumidityLow,PressureMaxIn,PressureMinIn,WindSpeedMaxMPH,WindSpeedAvgMPH,GustSpeedMaxMPH,PrecipitationSumIn
2013-1-1,23,23,23,20,20,20,89,89,89,30.45,30.45,0,0,0,0.00
2013-1-2,23,23,23,20,20,20,89,89,89,30.45,30.45,0,0,0,0.00
2013-1-3,23,23,22,20,20,19,89,89,89,30.45,30.45,0,0,1,0.01
2013-1-4,33,28,25,27,25,22,91,86,76,30.52,30.45,3,0,0,0.00
2013-1-12,27,26,25,23,23,22,91,89,85,30.40,30.40,2,1,3,0.00
2013-2-3,35,35,35,35,34,34,98,98,97,30.26,30.23,0,0,1,0.01
2013-2-8,34,34,34,27,27,27,76,76,75,30.17,30.17,2,2,2,0.00
2013-3-2,55,53,52,47,46,46,81,78,74,30.17,30.11,8,4,9,0.00
2013-3-13,56,55,54,44,43,43,67,65,62,30.11,30.09,1,0,2,0.00
2013-3-17,49,49,49,28,28,28,44,44,44,30.09,30.09,11,11,18,0.00
2013-4-5,59,58,58,42,42,42,55,54,53,29.86,29.85,11,10,14,0.00
2013-4-7,54,47,42,38,37,36,77,69,54,29.78,29.67,17,11,27,0.10
2013-4-14,48,47,46,35,34,33,66,60,55,29.96,29.95,6,6,6,0.00
2013-4-21,64,56,44,41,38,31,66,52,33,30.26,30.04,10,4,14,0.00
2013-4-22,44,43,43,33,32,31,69,65,63,30.27,30.26,1,0,1,0.00
2013-4-30,45,45,45,25,25,25,45,45,45,30.35,30.35,0,0,0,0.00
2013-5-10,92,92,92,40,40,40,16,16,16,29.97,29.97,2,2,2,0.00
2013-5-11,76,75,75,54,53,53,47,47,46,30.04,30.04,6,5,10,0.00
2013-5-20,79,73,63,49,46,43,49,38,30,30.20,29.79,2,1,4,0.00
2013-6-9,86,77,64,55,43,27,60,32,12,29.94,29.77,4,2,9,0.00
2013-6-10,64,63,62,42,41,41,47,45,44,29.85,29.84,1,0,1,0.00
2013-6-15,60,60,60,44,44,44,57,56,56,29.97,29.97,1,1,3,0.00
2013-6-22,80,74,63,52,47,44,56,39,30,29.96,29.85,2,1,3,0.00
2013-6-23,73,65,61,59,57,51,91,79,45,29.64,29.61,5,3,6,0.08
2013-6-29,93,84,73,69,64,61,79,54,36,29.98,29.88,4,2,6,0.29
2013-6-30,92,86,82,69,67,63,61,53,46,29.96,29.85,3,1,3,0.00
2013-7-3,78,78,78,62,62,62,56,56,56,29.95,29.95,0,0,2,0.00
2013-7-4,76,76,76,52,52,52,43,43,43,29.78,29.78,1,1,1,0.00
2013-8-25,65,65,65,60,60,59,85,84,82,29.84,29.82,5,3,13,0.00
2013-10-13,63,62,61,40,39,35,46,42,35,30.24,30.23,1,1,3,0.00
2013-10-26,61,55,49,48,46,43,81,70,60,30.32,30.08,4,1,4,0.00
2013-10-27,51,49,46,47,45,43,91,86,79,30.07,29.76,14,4,19,0.01
2013-11-6,42,42,42,38,38,38,83,83,83,30.31,30.31,1,1,1,0.00
2013-11-18,55,54,54,40,39,38,58,56,54,29.85,29.84,14,12,15,0.00
2013-11-23,31,31,31,20,20,20,61,61,61,30.65,30.65,1,1,2,0.00
2013-11-30,31,30,29,30,28,28,96,96,96,30.41,30.39,0,0,0,0.00
2013-12-8,21,15,11,3,0,-2,65,53,42,30.67,30.55,3,1,6,0.00
2013-12-21,37,33,30,30,28,26,89,82,75,30.19,30.11,1,0,3,0.00
2013-12-22,30,30,30,27,27,27,89,89,89,30.19,30.19,0,0,0,0.00
2014-1-1,30,29,28,29,28,27,96,96,95,30.47,30.45,1,0,2,0.00